Flag for Barbados Weather past 2 weeks in Bridgetown, Barbados

Now
79 °F

Passing clouds.


Feels Like: 82 °F
Forecast: 81 / 83 °F
Wind: 15 mph from East

Location: Grantley Adams

Current Time: Dec 19, 2014 at 10:15:59 PM

Latest Report: Dec 19, 2014 at 10:00 PM


Visibility: N/A

Pressure: 29.95 "Hg

Humidity: 84%

Dew point: 73 °F

Location of BridgetownLocation

Historic Weather in Bridgetown — Graph

°F

Bridgetown temperature yesterday

Maximum temperature yesterday: 84 °F (at 10:00 AM)
Minimum temperature yesterday: 75 °F (at 6:00 PM)
Average temperature yesterday: 79 °F

Past Weeks' High & Low Weather Summary

 TemperatureHumidityPressure
High86 °F (Dec 5, 1:00 PM)100% (Dec 6, 4:00 AM)30.01 "Hg (Dec 6, 4:00 AM)
Low75 °F (Dec 6, 1:00 AM)62% (Dec 12, 12:00 PM)29.80 "Hg (Dec 6, 3:00 PM)
Average81 °F79%29.91 "Hg
* Reported Dec 4 9:00 PM — Dec 19 9:00 PM, Bridgetown, Weather by CustomWeather, © 2014

Note: Actual official high and low records may vary slightly from our data, if they occured in-between our weather recording intervals... More about our weather records

Advertising

Bridgetown weather history for previous 24 hours

 ConditionsComfort  
Time TempWeatherWind HumidityBarometerVisibility
9:00 PM
Dec 19
79 °FPassing clouds.16 mph84%29.95 "HgN/A
8:00 PM79 °FPassing clouds.9 mph84%29.92 "HgN/A
7:00 PM79 °FPassing clouds.13 mph84%29.92 "HgN/A
6:00 PM79 °FPassing clouds.12 mph79%29.89 "HgN/A
5:00 PM81 °FScattered clouds.14 mph84%29.89 "HgN/A
4:00 PM84 °FScattered showers. Scattered clouds.9 mph70%29.86 "HgN/A
3:00 PM84 °FScattered clouds.13 mph70%29.86 "HgN/A
2:00 PM84 °FScattered clouds.13 mph70%29.89 "HgN/A
1:00 PM84 °FScattered clouds.13 mph74%29.92 "HgN/A
12:00 PM84 °FScattered clouds.14 mph70%29.92 "HgN/A
11:00 AM84 °FScattered clouds.10 mph74%29.95 "HgN/A
10:00 AM84 °FScattered clouds.13 mph70%29.95 "HgN/A
9:00 AM82 °FPassing clouds.12 mph74%29.95 "HgN/A
8:00 AM81 °FScattered clouds.10 mph79%29.92 "HgN/A
7:00 AM77 °FScattered clouds.6 mph89%29.89 "HgN/A
6:00 AM75 °FPassing clouds.6 mph89%29.89 "HgN/A
5:00 AM75 °FPassing clouds.6 mph89%29.86 "HgN/A
4:00 AM77 °FPassing clouds.9 mph83%29.86 "HgN/A
2:00 AM77 °FPassing clouds.8 mph83%29.89 "HgN/A
1:00 AM77 °FSprinkles. Partly cloudy.8 mph83%29.92 "HgN/A
12:00 AM77 °FClear.8 mph83%29.92 "Hg10 mi
11:00 PM
Dec 18
77 °FPassing clouds.8 mph89%29.92 "HgN/A
10:00 PM77 °FPartly cloudy.8 mph89%29.92 "HgN/A
Weather by CustomWeather, © 2014

See weather overviewHow to use our weather pages